This is the latest recevied weather packets stored in our database for station/object N3OZD-10. If no packets are shown the sender has not sent any weather packets the latest 10 day(s).
| Time | Temp. | Humidity | Pressure | Rain* | Wind** | Luminosity | Snow |
|---|---|---|---|---|---|---|---|
| 1778131342 | 13.33° C | 94% | 1010.4 hPa | 1.27 mm | - | - | - |
| 1778131045 | 13.33° C | 94% | 1010.3 hPa | 1.27 mm | - | - | - |
| 1778130742 | 13.33° C | 93% | 1010.2 hPa | 0.76 mm | - | - | - |
| 1778130441 | 13.33° C | 92% | 1010.4 hPa | 0.76 mm | - | - | - |
| 1778130142 | 13.33° C | 91% | 1010.4 hPa | 0.51 mm | - | - | - |
| 1778129841 | 13.33° C | 90% | 1010.5 hPa | 0.51 mm | - | - | - |
| 1778129543 | 13.89° C | 88% | 1010.5 hPa | 0.51 mm | - | - | - |
| 1778129243 | 14.44° C | 86% | 1010.1 hPa | 0.51 mm | - | - | - |
| 1778128941 | 14.44° C | 83% | 1010.1 hPa | 0.51 mm | - | - | - |
| 1778128641 | 14.44° C | 82% | 1009.7 hPa | 0 mm | - | - | - |
| 1778128344 | 14.44° C | 82% | 1010 hPa | 0 mm | - | - | - |
| 1778128042 | 15° C | 81% | 1009.7 hPa | 0 mm | - | - | - |
| 1778127741 | 15° C | 80% | 1009.9 hPa | 0 mm | - | - | - |
| 1778127441 | 15° C | 79% | 1009.8 hPa | 0 mm | - | - | - |
| 1778127141 | 15° C | 77% | 1009.9 hPa | 0 mm | - | - | - |
| 1778126841 | 15° C | 79% | 1009.7 hPa | 0 mm | - | - | - |
| 1778126541 | 15.56° C | 81% | 1009.4 hPa | 0 mm | - | - | - |
| 1778126241 | 15.56° C | 81% | 1009.4 hPa | 0 mm | - | - | - |
| 1778125941 | 16.11° C | 80% | 1009.4 hPa | 0 mm | - | - | - |
| 1778125341 | 16.11° C | 80% | 1009.4 hPa | 0 mm | - | - | - |
| 1778125042 | 16.11° C | 80% | 1009.7 hPa | 0 mm | - | - | - |
| 1778124741 | 16.11° C | 79% | 1009.6 hPa | 0 mm | - | - | - |
| 1778124441 | 16.11° C | 79% | 1009.6 hPa | 0 mm | - | - | - |
| 1778124141 | 16.67° C | 82% | 1009.3 hPa | 0 mm | - | - | - |
| 1778123842 | 16.67° C | 83% | 1009.3 hPa | 0 mm | - | - | - |
* Rain latest hour (hover to see other rain measurements)
** Current wind speed in m/s (hover to see current wind gust speed)